Location: Costa Valle Imagna
(45.8000°N, 9.5000°E)
Time: 23:41:55
(UTC+00:00)

Cosmos 1725 Rocket - Pass Details

Date: 17 February 2020
Orbit: 963 x 990 km, 82.9° (Epoch: 09 April)

Event Time Altitude Azimuth Distance (km) Brightness Sun altitude
Rises 05:18:39 0° 351° (N) 3,680 6.9 -11.7°
Reaches altitude 10° 05:21:09 10° 353° (N) 2,732 6.2 -11.3°
Maximum altitude 05:27:26 84° 81° (E) 991 4.1 -10.2°
Drops below altitude 10° 05:33:44 10° 171° (S) 2,732 6.6 -9.1°
Sets 05:36:14 0° 172° (S) 3,679 7.3 -8.7°
